Location: Street
(51.1247°N, 2.7429°W)
Time: 18:46:37
(UTC+00:00)

Courier 1B Rocket - Pass Details

Date: 02 December 2020
Orbit: 920 x 1202 km, 28.2° (Epoch: 14 January)

Event Time Altitude Azimuth Distance (km) Brightness Sun altitude
Rises 06:25:12 0° 229° (SW) 4,089 8.0 -13.3°
Reaches altitude 10° 06:30:28 10° 200° (SSW) 3,126 7.6 -12.5°
Maximum altitude 06:32:57 12° 181° (S) 2,986 7.8 -12.1°
Drops below altitude 10° 06:35:25 10° 162° (SSE) 3,106 8.2 -11.8°
Sets 06:40:36 0° 133° (SE) 4,027 9.7 -11.0°
